STARLINK-3856, 52459

Orbit data source: Space-Track

STARLINK-3856, 52459 is a payload satellite owned by SpaceX/Seattle (US) in LEO that was launched on Fri, 06 May 2022 UTC via an FALCON 9 launch vehicle from the Air Force Eastern Test Range (AFETR). Payload-class satellites include a variety of spacecraft equipped with specific instruments for various scientific and technological missions. These include communications satellites like Starlink; space stations such as the ISS; scientific satellites like the Hubble; Earth observation satellites from companies like Planet Labs, Umbra, and HawkEye 360; GPS; miniature CubeSats for education and research; and military/defense satellites.

Loading next visibility...
Identifier
52459, 2022-049J
Orbit
LEO
Country
Flag of USUS
Related business
Manufacturer
SpaceX/Seattle
Mission
Operational Commercial Communications
Bus & Motor
STARLINK, Unknown motor
Mass
297 kg wet, ~220 kg dry
Launch date (UTC)
2022-05-06 (4 years ago)
Launch vehicle
FALCON 9
Launch site
Air Force Eastern Test Range (AFETR)
Object type
Payload
Rocket body
Debris
Shape & HBR
Box + 1 Pan, 10.1 m
Radar Cross Section
13.562 m², Large (>1 m²)

Expand to show TLE details & history
Last TLE update: 17 hours ago

TLE from 17 hours ago
0 STARLINK-3856
1 52459U 22049J   26206.58335648  .00726152  00000-0  28776-1 0  9994
2 52459  53.1615 159.2647 0001238  89.1821 144.6713 15.22530197  5742
Epoch: 2026-07-25T14:00Z
TLE epoch observation values (Epoch: 2026-07-25T14:00:01.999Z)
Latitude
-40.46871°
Longitude
-134.5723°
Altitude
512.271 km
Speed
7.607 km/s
True Right ascension
01h 14m 55s
True Declination
-40° 17' 35"
Sunlit
Object was in full shadow at epoch
Visualization orbit readout
Latitude
Unknown
Longitude
Unknown
Altitude
Unknown
Speed
Unknown
Apparent Right ascension
Unknown
Apparent Declination
Unknown
Sunlit
N/A
Visualization observer readout
Local Sidereal Time
20:21:17
Azimuth
Unknown
Elevation
Unknown
Doppler factor
Unknown
Orbital elements
Apogee altitude
499.318 km
Perigee altitude
497.616 km
Semi-major axis
6,876.604 km
Eccentricity
0.00012
Inclination
53.1615°
RAAN
159.2647°
Arg. of periapsis
89.1821°
True anomaly
144.6795°
Mean anomaly
144.6713°
Eccentric anomaly
144.6754°
Mean motion
3.80612 °/min
Orbital period
94.58 mins
BSTAR
0.028776
Loading maneuver chart data...
Computing Atmospheric mass density...
Loading historical data...
Loading historical data...
Loading historical data...
Loading historical data...
Loading historical data...
Loading historical data...
Loading historical data...

Documentation

Showing up to 5 results
|